OCEANSAT-2

Last updated on Mon Nov 03 2025 00:02:34 GMT+0000 (Coordinated Universal Time)

1 35931U 09051A 25306.51441972 .00000414 00000+0 30857-3 0 9999 2 35931 98.2232 311.1883 0016967 149.8938 210.3207 13.99614579847621
UTC large
Height (km)
Speed (km/s)
/
Latitude / Longitude
Inclination (degrees)
Orbital Period (minutes)
Azimuth
Elevation
Range (km)
Doppler Factor

Next 0 passes for location: London (51.5072 / 0.1276)

Sorry there are no passes over London.